[[{"header":{"parameterUnit":"m.s-1","parameterCategory":1,"la1":30.2991,"la2":30.254,"lo1":-89.0895,"lo2":-89.0444,"dy":0.0017,"dx":0.0017,"nx":28,"ny":28,"refTime":"2025-04-22T09:00:00:Z","depth":0,"parameterNumber":2,"parameterNumberName":"U-component_of_WINDS"},"data":[0,0,0,0,0,0,0,0,0,0,0,0,0,0,0,0,0,0,0,0,0,0,0,0,0,0,0,0,0,0,0,0,0,0,0,0,0,0,0,0,0,0,0,0,0,0,0,0,0,0,0,0,0,0,0,0,0,0,-1.6317,-1.6318,0,-1.644,-1.6442,-1.6443,-1.648,-1.6479,-1.6479,-1.6478,-1.6606,-1.661,-1.6614,0,0,0,0,0,0,0,0,0,0,0,0,0,-1.6115,-1.6118,-1.6317,-1.6318,-1.632,-1.644,-1.6442,-1.6444,-1.648,-1.6479,-1.6479,-1.6478,-1.6605,-1.661,-1.6615,0,0,0,0,0,0,0,0,0,0,0,0,0,-1.6217,-1.6119,-1.6316,-1.6352,-1.6357,-1.644,-1.6442,-1.6444,-1.648,-1.6479,-1.6478,-1.6477,-1.6603,-1.6609,-1.6615,-1.6672,0,0,-1.6634,-1.6636,0,0,0,0,0,0,0,0,-1.6211,-1.6224,-1.6346,-1.635,-1.6355,-1.6444,-1.6418,-1.652,-1.6481,-1.6433,-1.6478,-1.6477,-1.6553,-1.6563,-1.6589,-1.6678,-1.6683,-1.6634,-1.6638,-1.664,-1.6642,0,0,0,0,0,0,0,-1.6204,-1.6219,-1.6366,-1.6347,-1.6353,-1.6363,-1.6377,-1.6437,-1.6497,-1.6438,-1.644,-1.6455,-1.6556,-1.6583,-1.6592,-1.6685,-1.6634,-1.6639,-1.6643,-1.6645,-1.6828,-1.683,0,0,0,0,0,0,-1.619,-1.6213,-1.6362,-1.6369,-1.6279,-1.6368,-1.6383,-1.6416,-1.6497,-1.6508,-1.6455,-1.6456,-1.6573,-1.6585,-1.6596,-1.6669,-1.664,-1.6646,-1.6649,-1.6827,-1.6829,-1.683,0,0,0,0,0,0,-1.6186,-1.6203,-1.6357,-1.6292,-1.6312,-1.6372,-1.641,-1.6419,-1.6446,-1.651,-1.6521,-1.6472,-1.6573,-1.6588,-1.6653,-1.6673,-1.6649,-1.6654,-1.6826,-1.6828,-1.6829,-1.6812,0,0,0,0,0,0,-1.618,-1.6201,-1.6223,-1.6292,-1.6316,-1.641,-1.6411,-1.6422,-1.6457,-1.6458,-1.6528,-1.6539,-1.6573,-1.6644,-1.6659,-1.6681,-1.6659,-1.6824,-1.6827,-1.6829,-1.6811,-1.6813,-1.6815,0,0,0,0,0,-1.6173,-1.6213,-1.6224,-1.6241,-1.6343,-1.6411,-1.6425,-1.6462,-1.6458,-1.648,-1.6522,-1.6537,-1.6669,-1.665,-1.6667,-1.6692,-1.6823,-1.6826,-1.6829,-1.681,-1.6813,-1.6815,0,0,0,0,0,0,-1.6145,-1.6223,-1.6235,-1.6299,-1.6348,-1.6417,-1.6446,-1.6464,-1.6515,-1.6515,-1.656,-1.6576,-1.6638,-1.6672,-1.6649,-1.6752,-1.6747,-1.6753,-1.6727,-1.673,-1.6732,-1.6722,-1.6664,0,0,0,0,0,-1.6146,-1.6194,-1.626,-1.631,-1.6334,-1.6386,-1.6417,-1.6442,-1.6495,-1.6516,-1.6562,-1.6613,-1.6666,-1.67,-1.6752,-1.6817,-1.6833,-1.6843,-1.6844,-1.6846,-1.685,-1.6888,-1.6893,-1.6839,-1.6839,-1.6839,0,0,-1.6149,-1.6198,-1.6225,-1.6306,-1.6346,-1.6396,-1.6403,-1.6455,-1.6492,-1.6524,-1.6588,-1.6623,-1.6684,-1.6749,-1.678,-1.6779,-1.6869,-1.6849,-1.685,-1.6854,-1.6891,-1.6897,-1.6901,-1.6841,-1.6841,-1.6841,0,0,-1.6179,-1.6221,-1.6267,-1.6308,-1.637,-1.6405,-1.6416,-1.6483,-1.6508,-1.6573,-1.6598,-1.6644,-1.6734,-1.6776,-1.681,-1.6858,-1.6874,-1.6874,-1.6884,-1.692,-1.6924,-1.6928,-1.6946,-1.6951,-1.6879,-1.6879,-1.6879,0,-1.6175,-1.625,-1.6289,-1.634,-1.6375,-1.6406,-1.6454,-1.6493,-1.6569,-1.6593,-1.6591,-1.6706,-1.6749,-1.6824,-1.6836,-1.6862,-1.6877,-1.6866,-1.692,-1.6925,-1.6929,-1.6946,-1.6953,-1.6878,-1.6879,-1.6879,-1.6879,0,-1.6242,-1.6293,-1.6324,-1.6396,-1.6435,-1.6484,-1.6532,-1.6567,-1.6589,-1.6624,-1.6691,-1.6744,-1.6808,-1.6828,-1.685,-1.6907,-1.6905,-1.6911,-1.6907,-1.6933,-1.695,-1.6957,-1.6878,-1.6878,-1.6878,-1.6878,0,0,-1.6257,-1.6351,-1.6362,-1.6395,-1.6467,-1.6508,-1.6559,-1.6621,-1.6651,-1.6703,-1.6747,-1.6824,-1.6831,-1.6868,-1.6896,-1.6928,-1.6963,-1.693,-1.6933,-1.6934,-1.7031,-1.7025,-1.7032,-1.6975,-1.6977,-1.6978,-1.7025,0,-1.6296,-1.6388,-1.6426,-1.65,-1.6549,-1.658,-1.6625,-1.6674,-1.6709,-1.6756,-1.6795,-1.6849,-1.6853,-1.6877,-1.6909,-1.6952,-1.6983,-1.6949,-1.7018,-1.7019,-1.7,-1.7041,-1.7035,-1.7077,-1.7032,-1.7034,-1.7034,0,-1.6354,-1.6406,-1.6485,-1.6551,-1.6573,-1.6612,-1.6673,-1.6718,-1.6775,-1.6799,-1.6841,-1.6868,-1.6924,-1.6917,-1.6996,-1.6971,-1.7002,-1.7028,-1.703,-1.7037,-1.7028,-1.7049,-1.7092,-1.7098,-1.7045,-1.7044,-1.7044,0,-1.6356,-1.6446,-1.6505,-1.6533,-1.6612,-1.664,-1.6674,-1.673,-1.6766,-1.682,-1.6843,-1.6903,-1.6936,-1.6982,-1.7024,-1.7015,-1.7099,-1.7095,-1.7121,-1.7119,-1.7136,-1.7134,-1.7184,-1.7156,-1.7156,-1.7156,-1.7156,0,-1.6396,-1.6443,-1.6508,-1.6544,-1.6598,-1.6643,-1.6695,-1.6732,-1.6782,-1.6827,-1.6859,-1.69,-1.6954,-1.7003,-1.7036,-1.7097,-1.7111,-1.7132,-1.714,-1.7129,-1.7126,-1.7149,-1.7147,-1.7158,-1.7158,-1.7157,-1.7157,0,-1.6407,-1.6452,-1.6519,-1.6589,-1.6608,-1.6644,-1.6705,-1.6742,-1.6779,-1.6835,-1.6851,-1.691,-1.6969,-1.7016,-1.7093,-1.7116,-1.718,-1.7189,-1.716,-1.7164,-1.7187,-1.7184,-1.7252,-1.7264,-1.7229,-1.7229,-1.7229,0,-1.6429,-1.6466,-1.654,-1.6572,-1.6606,-1.6657,-1.6693,-1.6739,-1.6776,-1.6845,-1.6874,-1.6936,-1.6987,-1.7081,-1.713,-1.719,-1.7201,-1.7221,-1.721,-1.7198,-1.7202,-1.7199,-1.7203,-1.7222,-1.7222,-1.7222,-1.7222,0,-1.6463,-1.6484,-1.6534,-1.6594,-1.6636,-1.6685,-1.6735,-1.676,-1.6815,-1.6855,-1.6916,-1.6956,-1.7036,-1.7096,-1.7162,-1.7199,-1.722,-1.7226,-1.7235,-1.7223,-1.7204,-1.7215,-1.7163,-1.7224,-1.7223,-1.7223,-1.7223,-1.7223,-1.648,-1.6515,-1.6572,-1.6628,-1.6671,-1.6717,-1.6755,-1.6797,-1.6849,-1.6916,-1.6941,-1.7003,-1.7062,-1.7151,-1.7189,-1.7239,-1.7241,-1.7254,-1.7257,-1.7259,-1.7258,-1.7197,-1.7252,-1.7252,-1.7252,-1.7252,-1.7252,0,-1.6516,-1.6555,-1.6606,-1.6674,-1.6719,-1.6735,-1.6792,-1.6828,-1.6882,-1.6934,-1.6985,-1.7055,-1.7115,-1.717,-1.7233,-1.7263,-1.7274,-1.7278,-1.7276,-1.7284,-1.7253,-1.7239,-1.7267,-1.7267,-1.7267,-1.7267,-1.7267,-1.7267,-1.6539,-1.6599,-1.6627,-1.6708,-1.6748,-1.6809,-1.6839,-1.6883,-1.6925,-1.7002,-1.7051,-1.7087,-1.7141,-1.7208,-1.7264,-1.7279,-1.73,-1.7301,-1.7318,-1.7288,-1.7286,-1.7284,-1.7271,-1.7305,-1.7306,-1.7345,-1.7345,-1.7346]},{"header":{"parameterUnit":"m.s-1","parameterCategory":1,"la1":30.2991,"la2":30.254,"lo1":-89.0895,"lo2":-89.0444,"dy":0.0017,"dx":0.0017,"nx":28,"ny":28,"refTime":"2025-04-22T09:00:00:Z","depth":0,"parameterNumber":3,"parameterNumberName":"V-component_of_WINDS"},"data":[0,0,0,0,0,0,0,0,0,0,0,0,0,0,0,0,0,0,0,0,0,0,0,0,0,0,0,0,0,0,0,0,0,0,0,0,0,0,0,0,0,0,0,0,0,0,0,0,0,0,0,0,0,0,0,0,0,0,3.6456,3.6457,0,3.6533,3.6534,3.6534,3.6519,3.6517,3.6516,3.6514,3.659,3.6593,3.6596,0,0,0,0,0,0,0,0,0,0,0,0,0,3.6294,3.6297,3.6456,3.6457,3.6458,3.6533,3.6534,3.6535,3.6519,3.6517,3.6515,3.6514,3.6589,3.6592,3.6596,0,0,0,0,0,0,0,0,0,0,0,0,0,3.6367,3.6298,3.6456,3.6459,3.646,3.6532,3.6534,3.6535,3.6519,3.6517,3.6515,3.6513,3.6587,3.6592,3.6597,3.667,0,0,3.6612,3.6614,0,0,0,0,0,0,0,0,3.6363,3.6373,3.6458,3.6459,3.646,3.6514,3.6504,3.658,3.652,3.6497,3.6514,3.6512,3.6566,3.6573,3.6591,3.6673,3.6676,3.6613,3.6616,3.6618,3.6619,0,0,0,0,0,0,0,3.6358,3.6369,3.6486,3.6459,3.6461,3.6456,3.6464,3.6518,3.6542,3.6499,3.6498,3.6507,3.6566,3.6587,3.6593,3.6678,3.6612,3.6617,3.662,3.6622,3.6824,3.6826,0,0,0,0,0,0,3.6352,3.6365,3.6484,3.6489,3.6405,3.6461,3.647,3.6499,3.6541,3.6546,3.6509,3.6506,3.6579,3.6587,3.6596,3.6684,3.6618,3.6622,3.6625,3.6821,3.6824,3.6827,0,0,0,0,0,0,3.6348,3.6362,3.6481,3.6427,3.6441,3.6466,3.6499,3.6501,3.6522,3.6549,3.6553,3.6525,3.6578,3.6589,3.6652,3.6686,3.6625,3.6629,3.6819,3.6822,3.6826,3.6861,0,0,0,0,0,0,3.6344,3.6361,3.639,3.6428,3.6444,3.6536,3.6501,3.6505,3.6531,3.6528,3.6566,3.657,3.6577,3.6645,3.6657,3.6692,3.6633,3.6815,3.682,3.6824,3.6857,3.6865,3.6873,0,0,0,0,0,3.6338,3.6396,3.6391,3.6406,3.648,3.6538,3.6548,3.6556,3.6534,3.6562,3.658,3.6569,3.6681,3.6651,3.6665,3.6702,3.6813,3.6819,3.6824,3.6853,3.6864,3.6872,0,0,0,0,0,0,3.636,3.6401,3.6396,3.6468,3.65,3.6536,3.6571,3.6566,3.6604,3.66,3.6607,3.6616,3.668,3.6698,3.6664,3.6775,3.6744,3.6752,3.6761,3.6771,3.6779,3.6773,3.6637,0,0,0,0,0,3.6373,3.6418,3.6451,3.6511,3.6527,3.6547,3.6572,3.6576,3.6609,3.6622,3.6644,3.6676,3.6718,3.6746,3.6786,3.686,3.6868,3.6892,3.69,3.6906,3.6913,3.6954,3.6965,3.6844,3.6844,3.6844,0,0,3.6401,3.6429,3.6456,3.6516,3.6541,3.6587,3.6558,3.6607,3.6641,3.6629,3.669,3.6708,3.6744,3.6813,3.6844,3.6829,3.6948,3.6913,3.6918,3.6921,3.696,3.6972,3.6982,3.6848,3.6847,3.6847,0,0,3.6474,3.65,3.6553,3.6579,3.6619,3.6632,3.6644,3.6682,3.6693,3.6755,3.6748,3.6788,3.686,3.6886,3.6909,3.6994,3.6986,3.7007,3.7048,3.7088,3.7097,3.7105,3.7136,3.7147,3.7014,3.7014,3.7014,0,3.6503,3.6572,3.6581,3.6631,3.6658,3.6651,3.6705,3.673,3.678,3.6798,3.6781,3.6873,3.6896,3.6971,3.6992,3.7011,3.7026,3.7002,3.7095,3.7104,3.7112,3.7141,3.7152,3.7017,3.7016,3.7016,3.7016,0,3.6605,3.6653,3.6692,3.6742,3.6773,3.6824,3.6841,3.6871,3.6872,3.6887,3.695,3.6979,3.7025,3.7043,3.7044,3.7119,3.7109,3.7093,3.7062,3.7125,3.7153,3.7164,3.702,3.7019,3.7019,3.7018,0,0,3.6693,3.6749,3.6763,3.6786,3.6829,3.6866,3.6918,3.6964,3.699,3.7025,3.7068,3.7131,3.7118,3.7144,3.7148,3.7183,3.7249,3.7163,3.7164,3.7178,3.7333,3.7343,3.7356,3.7244,3.7246,3.7247,3.7329,0,3.677,3.6862,3.6872,3.6954,3.6998,3.6994,3.7038,3.707,3.7085,3.7125,3.7141,3.7186,3.7165,3.7181,3.7215,3.7233,3.728,3.7228,3.7283,3.7285,3.7274,3.737,3.7382,3.7458,3.734,3.7342,3.7343,0,3.6872,3.6912,3.6998,3.7037,3.7055,3.7096,3.714,3.7178,3.7214,3.7223,3.7253,3.7253,3.7305,3.7273,3.7346,3.731,3.7334,3.7347,3.735,3.7354,3.7317,3.7377,3.7482,3.7493,3.736,3.7359,3.7358,0,3.6927,3.7002,3.7063,3.7083,3.713,3.7158,3.7179,3.7212,3.724,3.7279,3.7297,3.7341,3.7365,3.7398,3.741,3.7385,3.7483,3.7451,3.7491,3.7491,3.7511,3.7509,3.762,3.7527,3.7527,3.7526,3.7526,0,3.7011,3.7064,3.7089,3.7127,3.7186,3.7198,3.7256,3.7275,3.7305,3.7346,3.7345,3.7383,3.7397,3.7438,3.7447,3.7506,3.7517,3.7525,3.7527,3.7525,3.7524,3.754,3.7535,3.7529,3.7529,3.7528,3.7528,0,3.7082,3.7101,3.7168,3.7207,3.7218,3.726,3.7293,3.733,3.7346,3.7398,3.7411,3.7435,3.7483,3.7498,3.7556,3.7562,3.7631,3.7629,3.762,3.762,3.7659,3.7655,3.7783,3.7801,3.7696,3.7697,3.7698,0,3.7135,3.7176,3.722,3.7248,3.727,3.7315,3.7344,3.7357,3.7387,3.7432,3.7463,3.7511,3.755,3.7627,3.7649,3.7693,3.7691,3.7734,3.7698,3.7695,3.7692,3.7689,3.7693,3.774,3.7741,3.7742,3.7742,0,3.7226,3.7233,3.7276,3.7322,3.7357,3.7393,3.7428,3.7451,3.747,3.7504,3.7553,3.7584,3.7644,3.7691,3.7737,3.7757,3.7753,3.7754,3.7765,3.7764,3.7757,3.7761,3.7637,3.775,3.775,3.7749,3.7749,3.7748,3.7289,3.7325,3.7363,3.741,3.7438,3.7472,3.7508,3.7529,3.7571,3.7622,3.7627,3.7681,3.7716,3.7777,3.78,3.7842,3.783,3.7847,3.7851,3.7855,3.7858,3.7751,3.785,3.785,3.785,3.785,3.785,0,3.738,3.7404,3.7448,3.7498,3.7535,3.753,3.7569,3.76,3.7648,3.7682,3.7721,3.7779,3.7825,3.7852,3.7898,3.7927,3.7926,3.7939,3.7936,3.7941,3.7866,3.7851,3.7939,3.7939,3.7939,3.7939,3.7939,3.7938,3.7431,3.7493,3.7505,3.7581,3.7605,3.7658,3.7681,3.7712,3.7739,3.7804,3.7843,3.7861,3.7892,3.7941,3.7984,3.7991,3.8008,3.8021,3.8027,3.7956,3.7946,3.7938,3.7924,3.8025,3.8025,3.8099,3.8099,3.81]}]]